DW8295 Weather Reports


Display with metric or nautical units.
time (UTC)temp
F
wind
direction
speed
MPH
gust
MPH
rain 1hr
in
rain 24hr
in
rain mn
in
humidity
%
barometer
mb
20260506051252 51 210 4.0 12.0 0.00 0.00 0.00 87 1007.7
20260506050751 51 167 3.0 10.0 0.00 0.00 0.00 87 1007.7
20260506050250 51 246 3.0 14.0 0.00 0.00 0.00 87 1007.7
20260506044750 52 241 5.0 12.0 0.00 0.00 0.00 86 1007.9
20260506044521 52 193 4.0 14.0 0.00 0.00 0.00 86 1007.8
20260506043750 52 210 5.0 14.0 0.00 0.00 0.00 85 1007.7
20260506043736 52 253 4.0 12.0 0.00 0.00 0.00 85 1007.7
20260506042748 52 234 5.0 12.0 0.00 0.00 0.00 86 1007.7
20260506042246 52 200 6.0 16.0 0.00 0.00 0.00 86 1007.6
20260506041746 52 210 5.0 16.0 0.00 0.00 0.00 86 1007.6
20260506041247 52 181 4.0 15.0 0.00 0.00 0.00 85 1007.6
20260506040745 53 175 3.0 10.0 0.00 0.00 0.00 86 1007.6
20260506040244 53 192 4.0 10.0 0.00 0.00 0.00 86 1007.5
20260506040004 53 231 3.0 10.0 0.00 0.00 0.00 86 1007.6
20260506035504 53 209 3.0 12.0 0.00 0.00 0.00 86 1007.6
20260506034739 53 180 3.0 12.0 0.00 0.00 0.00 86 1007.6
20260506034237 53 205 3.0 9.0 0.00 0.00 0.00 86 1007.5
20260506033735 53 177 4.0 10.0 0.00 0.00 0.00 86 1007.5
20260506033236 53 187 5.0 11.0 0.00 0.00 0.00 85 1007.6
20260506032734 53 168 4.0 11.0 0.00 0.00 0.00 85 1007.6
20260506032234 53 203 3.0 9.0 0.00 0.00 0.00 85 1007.5
20260506031952 53 161 2.0 7.0 0.00 0.00 0.00 85 1007.4
20260506031232 53 166 2.0 8.0 0.00 0.00 0.00 85 1007.4
20260506030955 53 183 2.0 8.0 0.00 0.00 0.00 85 1007.5
20260506030230 53 177 2.0 7.0 0.00 0.00 0.00 85 1007.7
20260506025730 53 158 2.0 7.0 0.00 0.00 0.00 85 1007.7
20260506025230 53 175 2.0 6.0 0.00 0.00 0.00 84 1007.8
20260506024731 53 177 3.0 8.0 0.00 0.00 0.00 84 1007.6
20260506024231 53 183 3.0 11.0 0.00 0.00 0.00 83 1007.7
20260506023730 54 219 3.0 11.0 0.00 0.00 0.00 83 1007.7
20260506023230 54 230 3.0 7.0 0.00 0.00 0.00 82 1007.5
20260506022728 55 199 3.0 7.0 0.00 0.00 0.00 81 1007.6
20260506022229 55 165 3.0 7.0 0.00 0.00 0.00 81 1007.7
20260506021722 55 201 3.0 7.0 0.00 0.00 0.00 80 1007.7
20260506021436 56 196 3.0 7.0 0.00 0.00 0.00 79 1007.7
20260506020712 56 135 4.0 9.0 0.00 0.00 0.00 79 1007.8
20260506020432 57 185 4.0 10.0 0.00 0.00 0.00 78 1007.7
20260506015658 57 205 4.0 10.0 0.00 0.00 0.00 78 1007.8
20260506015151 57 180 3.0 9.0 0.00 0.00 0.00 78 1007.8
20260506014645 57 186 3.0 11.0 0.00 0.00 0.00 78 1007.9
20260506014139 57 186 2.0 11.0 0.00 0.00 0.00 78 1007.8
20260506013632 57 186 1.0 6.0 0.00 0.00 0.00 78 1007.8
20260506013126 57 181 1.0 6.0 0.00 0.00 0.00 78 1007.8
20260506012621 57 221 0.0 6.0 0.00 0.00 0.00 78 1007.7
20260506012120 57 168 2.0 7.0 0.00 0.00 0.00 77 1007.6
20260506011608 57 168 4.0 10.0 0.00 0.00 0.00 77 1007.5
20260506011550 57 135 3.0 10.0 0.00 0.00 0.00 76 1007.5
20260506010606 58 176 4.0 12.0 0.00 0.00 0.00 76 1007.4
20260506010103 58 166 4.0 12.0 0.00 0.00 0.00 76 1007.4
20260506005602 58 207 3.0 8.0 0.00 0.00 0.00 75 1007.3
20260506005321 59 157 3.0 8.0 0.00 0.00 0.00 74 1007.4
20260506004602 59 244 3.0 8.0 0.00 0.00 0.00 74 1007.4
20260506004102 59 261 3.0 11.0 0.00 0.00 0.00 73 1007.4
20260506003600 60 242 3.0 13.0 0.00 0.00 0.00 73 1007.3
20260506003100 60 178 3.0 13.0 0.00 0.00 0.00 72 1007.3
20260506002600 60 224 3.0 11.0 0.00 0.00 0.00 72 1007.1
20260506002100 60 175 3.0 11.0 0.00 0.00 0.00 72 1006.9
20260506001600 61 171 4.0 11.0 0.00 0.00 0.00 71 1006.9
20260506001058 61 150 5.0 12.0 0.00 0.00 0.00 70 1006.7
20260506000557 62 159 5.0 12.0 0.00 0.00 0.00 70 1006.4
20260506000100 62 209 4.0 10.0 0.00 0.00 0.00 69 1006.2
20260505235558 63 197 4.0 13.0 0.00 0.00 0.00 68 1006.1
20260505235058 63 186 5.0 14.0 0.00 0.00 0.00 67 1006.1
20260505234559 64 198 3.0 14.0 0.00 0.00 0.00 68 1006.2
20260505234052 64 171 0.0 5.0 0.00 0.00 0.00 69 1006.2
20260505233806 64 260 1.0 9.0 0.00 0.00 0.00 69 1006.0
20260505233039 64 260 4.0 20.0 0.00 0.00 0.00 69 1005.9
20260505232533 63 236 6.0 20.0 0.00 0.00 0.00 71 1006.2
20260505232228 59 252 9.0 25.0 0.00 0.00 0.00 77 1005.8
20260505232114 61 274 8.0 25.0 0.00 0.00 0.00 73 1005.9
20260505231015 56 19 8.0 17.0 0.00 0.00 0.00 80 1006.6
20260505230509 55 236 7.0 15.0 0.00 0.00 0.00 80 1005.5
20260505230004 55 192 6.0 16.0 0.00 0.00 0.00 80 1004.9
20260505225718 55 194 6.0 21.0 0.00 0.00 0.00 80 1004.6
20260505224951 55 155 7.0 20.0 0.00 0.00 0.00 80 1004.5
20260505224445 55 211 7.0 21.0 0.00 0.00 0.00 80 1004.4
20260505223939 56 181 6.0 20.0 0.00 0.00 0.00 80 1004.3
20260505223433 56 235 7.0 15.0 0.00 0.00 0.00 79 1004.3
20260505222927 56 203 7.0 19.0 0.00 0.00 0.00 79 1004.2
20260505222421 57 212 7.0 19.0 0.00 0.00 0.00 78 1004.2
20260505221916 57 273 7.0 18.0 0.00 0.00 0.00 78 1004.2
20260505221634 57 261 6.0 18.0 0.00 0.00 0.00 78 1004.1
20260505220903 57 190 7.0 20.0 0.00 0.00 0.00 78 1003.8
20260505220844 57 144 8.0 20.0 0.00 0.00 0.00 78 1003.8
20260505215852 57 173 8.0 19.0 0.00 0.00 0.00 78 1003.9
20260505215345 57 242 7.0 22.0 0.00 0.00 0.00 78 1003.9
20260505214841 57 207 6.0 22.0 0.00 0.00 0.00 78 1004.0
20260505214333 57 277 7.0 16.0 0.00 0.00 0.00 78 1003.9
20260505213828 58 248 6.0 16.0 0.00 0.00 0.00 77 1004.1
20260505213321 58 220 6.0 16.0 0.00 0.00 0.00 77 1003.9
20260505212815 58 260 6.0 15.0 0.00 0.00 0.00 77 1003.7
20260505212528 58 215 6.0 15.0 0.00 0.00 0.00 78 1003.7
20260505211803 57 228 6.0 22.0 0.00 0.00 0.00 78 1003.6
20260505211258 57 192 8.0 22.0 0.00 0.00 0.00 78 1003.7
20260505210752 58 202 9.0 24.0 0.00 0.00 0.00 77 1003.8
20260505210245 58 175 8.0 24.0 0.00 0.00 0.00 77 1003.7
20260505205740 58 223 8.0 20.0 0.00 0.00 0.00 77 1003.6
20260505205455 59 192 8.0 20.0 0.00 0.00 0.00 76 1003.5
20260505204727 59 176 7.0 18.0 0.00 0.00 0.00 75 1003.6
20260505204222 60 201 6.0 18.0 0.00 0.00 0.00 75 1003.8
20260505203715 60 219 6.0 17.0 0.00 0.00 0.00 75 1003.8
20260505203209 60 208 6.0 17.0 0.00 0.00 0.00 74 1003.7
20260505202703 60 245 6.0 16.0 0.00 0.00 0.00 75 1003.9
20260505202158 60 235 5.0 17.0 0.00 0.00 0.00 76 1003.8
20260505201652 60 191 6.0 17.0 0.00 0.00 0.00 76 1003.7
20260505201145 60 250 7.0 16.0 0.00 0.00 0.00 75 1003.9
20260505200903 60 274 7.0 20.0 0.00 0.00 0.00 74 1004.0
20260505200134 60 194 6.0 27.0 0.00 0.00 0.00 74 1003.9
20260505195627 60 200 7.0 27.0 0.00 0.00 0.00 74 1004.0
20260505195349 60 163 6.0 16.0 0.00 0.00 0.00 75 1004.0
20260505194617 60 177 6.0 13.0 0.00 0.00 0.00 76 1004.2
20260505194109 59 192 6.0 16.0 0.00 0.00 0.00 77 1004.3
20260505193605 59 205 8.0 16.0 0.00 0.00 0.00 77 1004.4
20260505193058 59 267 7.0 16.0 0.00 0.00 0.00 78 1004.5
20260505192551 58 266 6.0 15.0 0.00 0.00 0.00 78 1004.5
20260505192046 58 201 6.0 20.0 0.00 0.00 0.00 78 1004.6
20260505191541 58 188 6.0 17.0 0.00 0.00 0.00 78 1004.8
20260505191033 59 178 6.0 17.0 0.00 0.00 0.00 77 1004.9
20260505190746 59 265 7.0 15.0 0.00 0.00 0.00 77 1005.0
20260505190025 59 247 9.0 18.0 0.00 0.00 0.00 78 1005.1
20260505185526 59 248 9.0 20.0 0.00 0.00 0.00 78 1005.1
20260505185246 59 196 9.0 23.0 0.00 0.00 0.00 78 1005.2
20260505184525 59 184 10.0 23.0 0.00 0.00 0.00 76 1005.3
20260505184512 60 196 9.0 20.0 0.00 0.00 0.00 77 1005.2
20260505183525 60 160 8.0 19.0 0.00 0.00 0.00 77 1005.2
20260505183026 59 157 9.0 20.0 0.00 0.00 0.00 78 1005.2
20260505182746 58 169 9.0 20.0 0.00 0.00 0.00 78 1005.3
20260505182027 59 190 8.0 18.0 0.00 0.00 0.00 77 1005.3
20260505181527 58 178 10.0 21.0 0.00 0.00 0.00 78 1005.2
20260505181026 58 184 11.0 21.0 0.00 0.00 0.00 79 1005.2
20260505180526 58 140 11.0 21.0 0.00 0.00 0.00 80 1005.3
20260505180025 57 180 10.0 24.0 0.00 0.00 0.00 80 1005.2
20260505175525 57 223 11.0 25.0 0.00 0.00 0.00 79 1005.4
20260505175026 58 186 10.0 25.0 0.00 0.00 0.00 77 1005.5
20260505174526 59 182 9.0 20.0 0.00 0.00 0.00 76 1005.6
20260505174025 60 171 8.0 20.0 0.00 0.00 0.00 77 1005.6
20260505173519 59 202 8.0 18.0 0.00 0.00 0.00 79 1005.7
20260505173451 58 186 9.0 20.0 0.00 0.00 0.00 79 1005.7
20260505172508 58 202 9.0 26.0 0.00 0.00 0.00 78 1005.8
20260505172001 59 179 8.0 26.0 0.00 0.00 0.00 75 1006.0
20260505171723 60 157 8.0 19.0 0.00 0.00 0.00 75 1006.0
20260505170950 60 192 8.0 19.0 0.00 0.00 0.00 77 1006.3
20260505170443 60 186 8.0 19.0 0.00 0.00 0.00 76 1006.6
20260505165938 60 186 6.0 19.0 0.00 0.00 0.00 75 1006.5
20260505165431 60 215 7.0 17.0 0.00 0.00 0.00 77 1006.6
20260505165146 59 175 7.0 17.0 0.00 0.00 0.00 78 1006.5
20260505164419 58 182 7.0 14.0 0.00 0.00 0.00 78 1006.6
20260505163914 58 178 7.0 14.0 0.00 0.00 0.00 78 1006.6
20260505163407 58 184 8.0 21.0 0.00 0.00 0.00 79 1006.6
20260505162902 58 200 7.0 19.0 0.00 0.00 0.00 78 1006.8
20260505162356 58 227 6.0 15.0 0.00 0.00 0.00 78 1006.9
20260505162109 58 150 6.0 15.0 0.00 0.00 0.00 78 1007.1
20260505161343 58 203 6.0 16.0 0.00 0.00 0.00 80 1007.2
20260505161104 57 144 8.0 16.0 0.00 0.00 0.00 80 1007.2
20260505160335 57 190 9.0 23.0 0.00 0.00 0.00 79 1007.4
20260505153016 58 182 7.0 14.0 0.00 0.00 0.00 80 1007.7
20260505152735 58 172 5.0 17.0 0.00 0.00 0.00 79 1007.8
20260505152237 58 206 4.0 17.0 0.00 0.00 0.00 79 1007.9
20260505151517 57 142 5.0 15.0 0.00 0.00 0.00 80 1007.7
20260505151015 56 208 5.0 15.0 0.00 0.00 0.00 81 1007.9
20260505150515 56 194 5.0 16.0 0.00 0.00 0.00 82 1007.8
20260505140505 55 157 5.0 13.0 0.00 0.00 0.00 82 1007.5
20260505140226 55 186 6.0 13.0 0.00 0.00 0.00 83 1007.5
20260505124937 53 182 7.0 16.0 0.00 0.00 0.00 84 1007.5
20260505124438 53 186 7.0 13.0 0.00 0.00 0.00 84 1007.5
20260505123937 53 211 6.0 15.0 0.00 0.00 0.00 84 1007.5
20260505123439 53 161 6.0 17.0 0.00 0.00 0.00 84 1007.4
20260505122937 53 190 5.0 17.0 0.00 0.00 0.00 84 1007.6
20260505122439 53 245 5.0 16.0 0.00 0.00 0.00 84 1007.7
20260505121939 53 226 5.0 16.0 0.00 0.00 0.00 84 1007.6
20260505121439 53 217 5.0 11.0 0.00 0.00 0.00 85 1007.5
20260505121200 52 226 6.0 15.0 0.00 0.00 0.00 85 1007.6
20260505120701 52 206 6.0 15.0 0.00 0.00 0.00 85 1007.7
20260505115935 52 180 7.0 15.0 0.00 0.00 0.00 85 1007.8
20260505115435 52 170 6.0 15.0 0.00 0.00 0.00 85 1007.9
20260505115153 52 194 6.0 17.0 0.00 0.00 0.00 85 1007.8
20260505114433 52 214 6.0 17.0 0.00 0.00 0.00 85 1008.0
20260505113933 52 212 5.0 16.0 0.00 0.00 0.00 85 1008.0
20260505113434 52 165 6.0 14.0 0.00 0.00 0.00 85 1008.0
20260505113157 51 180 7.0 14.0 0.00 0.00 0.00 85 1008.0
20260505112434 51 164 7.0 14.0 0.00 0.00 0.00 85 1008.0
20260505111931 51 223 6.0 14.0 0.00 0.00 0.00 86 1008.0
20260505111431 51 162 6.0 14.0 0.00 0.00 0.00 86 1007.9
20260505110930 51 171 6.0 14.0 0.00 0.00 0.00 86 1007.9
20260505110432 51 192 5.0 15.0 0.00 0.00 0.00 86 1007.8
20260505101932 50 245 4.0 12.0 0.00 0.00 0.00 86 1007.9
20260505101434 50 194 4.0 12.0 0.00 0.00 0.00 86 1007.8
20260505100931 50 200 3.0 11.0 0.00 0.00 0.00 86 1007.8
20260505100432 50 193 4.0 11.0 0.00 0.00 0.00 86 1007.8
20260505095931 50 159 4.0 10.0 0.00 0.00 0.00 86 1007.8
20260505095431 50 198 4.0 10.0 0.00 0.00 0.00 86 1007.8
20260505094931 50 248 4.0 14.0 0.00 0.00 0.00 86 1007.8
20260505094431 50 219 3.0 14.0 0.00 0.00 0.00 86 1007.7
20260505093931 50 236 4.0 10.0 0.00 0.00 0.00 86 1007.7
20260505093432 50 272 4.0 10.0 0.00 0.00 0.00 86 1007.7
20260505092925 50 216 3.0 9.0 0.00 0.00 0.00 86 1007.7
20260505092421 49 175 3.0 7.0 0.00 0.00 0.00 87 1007.7
20260505091921 49 227 3.0 8.0 0.00 0.00 0.00 87 1007.8
20260505091423 49 211 2.0 8.0 0.00 0.00 0.00 86 1007.8
20260505090921 49 203 2.0 9.0 0.00 0.00 0.00 86 1007.8
20260505090421 50 218 2.0 9.0 0.00 0.00 0.00 86 1007.9
20260505085919 50 233 1.0 6.0 0.00 0.00 0.00 85 1007.9
20260505085419 50 203 3.0 9.0 0.00 0.00 0.00 85 1008.0
20260505084919 50 227 4.0 9.0 0.00 0.00 0.00 84 1008.1
20260505084636 50 215 3.0 10.0 0.00 0.00 0.00 84 1008.1
20260505083919 50 236 3.0 10.0 0.00 0.00 0.00 84 1008.0
20260505083418 50 197 3.0 8.0 0.00 0.00 0.00 85 1008.1
20260505082917 50 224 3.0 8.0 0.00 0.00 0.00 85 1008.1
20260505082417 50 202 3.0 8.0 0.00 0.00 0.00 85 1008.1
20260505082141 50 219 2.0 8.0 0.00 0.00 0.00 85 1008.1
20260505081416 50 171 3.0 8.0 0.00 0.00 0.00 85 1008.1
20260505080916 50 213 3.0 8.0 0.00 0.00 0.00 84 1008.1
20260505080416 50 184 2.0 8.0 0.00 0.00 0.00 84 1008.1
20260505075914 50 186 2.0 8.0 0.00 0.00 0.00 84 1008.1
20260505075408 50 222 2.0 8.0 0.00 0.00 0.00 84 1008.1
20260505074905 50 215 2.0 12.0 0.00 0.00 0.00 84 1008.2
20260505074627 50 167 3.0 12.0 0.00 0.00 0.00 84 1008.2
20260505074128 50 213 3.0 11.0 0.00 0.00 0.00 85 1008.2
20260505073405 50 205 3.0 11.0 0.00 0.00 0.00 84 1008.2
20260505072905 50 200 3.0 9.0 0.00 0.00 0.00 83 1008.1
20260505072405 51 227 2.0 9.0 0.00 0.00 0.00 83 1008.1
20260505071905 51 215 2.0 7.0 0.00 0.00 0.00 83 1008.1
20260505071405 51 273 2.0 10.0 0.00 0.00 0.00 82 1008.1
20260505071345 51 221 3.0 11.0 0.00 0.00 0.00 82 1008.1
20260505070405 51 213 3.0 11.0 0.00 0.00 0.00 82 1008.0
20260505070127 51 229 3.0 11.0 0.00 0.00 0.00 82 1008.0
20260505065404 51 244 4.0 11.0 0.00 0.00 0.00 82 1008.0
20260505064905 51 212 4.0 10.0 0.00 0.00 0.00 81 1008.0
20260505064404 51 245 3.0 10.0 0.00 0.00 0.00 82 1008.0
20260505064127 51 223 3.0 11.0 0.00 0.00 0.00 81 1007.9
20260505063405 51 228 3.0 11.0 0.00 0.00 0.00 81 1007.9
20260505062906 51 213 4.0 11.0 0.00 0.00 0.00 80 1007.9
20260505062401 51 208 4.0 13.0 0.00 0.00 0.00 80 1007.9
20260505061855 52 192 4.0 13.0 0.00 0.00 0.00 79 1007.9
20260505061347 52 184 4.0 12.0 0.00 0.00 0.00 79 1007.9
20260505061108 52 230 4.0 12.0 0.00 0.00 0.00 79 1007.9
20260505060334 52 227 4.0 11.0 0.00 0.00 0.00 79 1008.0
20260505055828 52 189 3.0 9.0 0.00 0.00 0.00 79 1008.0
20260505055321 52 223 3.0 8.0 0.00 0.00 0.00 79 1007.9
20260505054815 52 199 3.0 9.0 0.00 0.00 0.00 79 1007.9